EW8881 Weather Reports


time (UTC)temp
F
wind
direction
speed
knots
gust
knots
rain 1hr
in
rain 24hr
in
rain mn
in
humidity
%
barometer
mb
20260906230707 101 8 0.0 5.2 0.00 0.00 0.00 37 1009.9
20260906230207 101 338 0.9 5.2 0.00 0.00 0.00 37 1009.8
20260906225706 101 64 0.9 5.2 0.00 0.00 0.00 36 1009.9
20260906225208 101 204 0.0 2.6 0.00 0.00 0.00 37 1009.9
20260906224707 101 351 0.0 0.9 0.00 0.00 0.00 37 1009.8
20260906224208 102 65 0.0 0.9 0.00 0.00 0.00 36 1009.8
20260906223710 102 22 0.0 2.6 0.00 0.00 0.00 37 1009.9
20260906223705 101 233 0.0 2.6 0.00 0.00 0.00 37 1010.0
20260906222705 101 57 0.0 0.9 0.00 0.00 0.00 37 1010.0
20260906222204 101 44 0.0 2.6 0.00 0.00 0.00 36 1010.0
20260906221707 102 290 0.9 6.1 0.00 0.00 0.00 37 1010.1
20260906221703 101 338 0.0 2.6 0.00 0.00 0.00 36 1010.0
20260906220704 101 299 0.9 6.1 0.00 0.00 0.00 37 1010.0
20260906220203 102 39 0.0 5.2 0.00 0.00 0.00 38 1010.1
20260906220159 102 221 0.0 1.7 0.00 0.00 0.00 38 1010.0
20260906215200 101 285 0.0 1.7 0.00 0.00 0.00 38 1010.2
20260906214700 101 271 0.0 0.9 0.00 0.00 0.00 39 1010.2
20260906214159 100 70 0.0 1.7 0.00 0.00 0.00 40 1010.3
20260906213700 100 210 0.0 1.7 0.00 0.00 0.00 38 1010.4
20260906213200 100 290 0.0 0.9 0.00 0.00 0.00 40 1010.4
20260906212658 100 339 0.0 1.7 0.00 0.00 0.00 39 1010.5
20260906212201 101 58 0.0 3.5 0.00 0.00 0.00 39 1010.6
20260906212157 101 207 0.0 3.5 0.00 0.00 0.00 38 1010.7
20260906211157 101 75 0.0 3.5 0.00 0.00 0.00 40 1010.7
20260906210657 100 290 0.0 3.5 0.00 0.00 0.00 40 1010.7
20260906210156 100 330 0.0 3.5 0.00 0.00 0.00 39 1011.0
20260906205656 101 34 0.0 2.6 0.00 0.00 0.00 38 1011.0
20260906205158 101 1 0.0 2.6 0.00 0.00 0.00 37 1011.0
20260906205154 101 238 0.0 1.7 0.00 0.00 0.00 39 1011.1
20260906204153 101 4 0.0 2.6 0.00 0.00 0.00 38 1011.1
20260906203654 101 80 0.0 2.6 0.00 0.00 0.00 39 1011.2
20260906203151 101 335 0.0 3.5 0.00 0.00 0.00 39 1011.2
20260906202651 101 17 0.0 3.5 0.00 0.00 0.00 40 1011.2
20260906202156 100 70 0.0 3.5 0.00 0.00 0.00 40 1011.4
20260906202151 100 240 0.0 3.5 0.00 0.00 0.00 40 1011.4
20260906201148 100 284 0.9 9.6 0.00 0.00 0.00 41 1011.4
20260906200649 100 284 0.9 9.6 0.00 0.00 0.00 40 1011.4
20260906200150 100 224 0.0 4.3 0.00 0.00 0.00 39 1011.5
20260906195649 101 345 0.0 0.9 0.00 0.00 0.00 40 1011.5
20260906195153 101 165 0.9 4.3 0.00 0.00 0.00 41 1011.6
20260906195148 100 282 0.9 4.3 0.00 0.00 0.00 40 1011.7
20260906194146 100 53 0.9 4.3 0.00 0.00 0.00 41 1011.7
20260906193644 101 19 0.0 3.5 0.00 0.00 0.00 40 1011.7
20260906193145 100 120 0.0 5.2 0.00 0.00 0.00 42 1011.8
20260906192643 100 88 0.0 5.2 0.00 0.00 0.00 40 1011.8
20260906192142 99 246 0.0 4.3 0.00 0.00 0.00 43 1011.9
20260906191647 99 93 0.0 4.3 0.00 0.00 0.00 41 1012.1
20260906191642 99 226 0.0 3.5 0.00 0.00 0.00 41 1012.1
20260906190640 99 37 0.9 6.1 0.00 0.00 0.00 43 1012.1
20260906190138 99 54 0.9 6.1 0.00 0.00 0.00 42 1012.1
20260906185638 99 341 0.9 4.3 0.00 0.00 0.00 43 1012.2
20260906185140 99 311 0.0 3.5 0.00 0.00 0.00 44 1012.3
20260906184638 99 215 0.0 3.5 0.00 0.00 0.00 43 1012.2
20260906184138 99 227 0.0 3.5 0.00 0.00 0.00 43 1012.2
20260906183641 100 297 0.0 4.3 0.00 0.00 0.00 44 1012.3
20260906183140 99 213 0.9 4.3 0.00 0.00 0.00 44 1012.4
20260906182641 99 30 0.0 4.3 0.00 0.00 0.00 43 1012.4
20260906182139 99 33 0.0 4.3 0.00 0.00 0.00 44 1012.5
20260906181638 99 250 0.0 0.9 0.00 0.00 0.00 46 1012.6
20260906181136 98 25 0.9 5.2 0.00 0.00 0.00 47 1012.7
20260906180637 98 32 0.9 5.2 0.00 0.00 0.00 44 1012.8
20260906180137 99 359 0.0 4.3 0.00 0.00 0.00 44 1012.9
20260906175636 99 39 0.0 2.6 0.00 0.00 0.00 44 1012.9
20260906175136 99 250 0.0 2.6 0.00 0.00 0.00 46 1013.1
20260906174635 99 199 0.0 3.5 0.00 0.00 0.00 47 1013.1
20260906174136 99 348 0.0 3.5 0.00 0.00 0.00 45 1013.2
20260906173640 99 206 0.0 2.6 0.00 0.00 0.00 46 1013.3
20260906173635 99 51 0.0 2.6 0.00 0.00 0.00 45 1013.2
20260906172635 98 330 0.0 3.5 0.00 0.00 0.00 45 1013.5
20260906172135 98 356 0.9 3.5 0.00 0.00 0.00 46 1013.5
20260906171641 98 242 0.0 1.7 0.00 0.00 0.00 47 1013.6
20260906171637 98 4 0.0 1.7 0.00 0.00 0.00 47 1013.6
20260906170635 98 235 0.9 4.3 0.00 0.00 0.00 49 1013.6
20260906170136 97 165 0.9 4.3 0.00 0.00 0.00 48 1013.7
20260906165636 98 167 0.0 3.5 0.00 0.00 0.00 48 1013.8
20260906165135 97 61 0.0 0.9 0.00 0.00 0.00 47 1013.8
20260906164635 97 298 0.0 3.5 0.00 0.00 0.00 50 1013.9
20260906164135 97 349 0.9 4.3 0.00 0.00 0.00 49 1013.9
20260906163635 96 224 0.0 4.3 0.00 0.00 0.00 51 1013.9
20260906163136 96 8 0.0 2.6 0.00 0.00 0.00 50 1013.9
20260906162637 96 30 0.0 2.6 0.00 0.00 0.00 51 1013.8
20260906162136 96 349 0.0 2.6 0.00 0.00 0.00 50 1013.9
20260906161641 95 359 0.0 2.6 0.00 0.00 0.00 54 1013.9
20260906161636 96 234 0.0 2.6 0.00 0.00 0.00 51 1013.9
20260906160636 95 47 0.0 2.6 0.00 0.00 0.00 54 1013.9
20260906160137 95 63 0.0 0.9 0.00 0.00 0.00 54 1013.9
20260906155636 95 17 0.0 1.7 0.00 0.00 0.00 56 1013.9
20260906155135 95 345 0.0 1.7 0.00 0.00 0.00 52 1013.9
20260906154636 95 334 0.0 0.0 0.00 0.00 0.00 54 1013.9
20260906154134 95 321 0.0 0.9 0.00 0.00 0.00 57 1014.0
20260906153634 94 38 0.0 1.7 0.00 0.00 0.00 56 1013.9
20260906153238 93 27 0.0 1.7 0.00 0.00 0.00 59 1013.7
20260906153135 93 248 0.0 1.7 0.00 0.00 0.00 58 1013.8
20260906153130 93 20 0.0 2.6 0.00 0.00 0.00 58 1013.7
20260906151629 93 336 0.0 2.6 0.00 0.00 0.00 59 1013.6
20260906151128 93 48 0.0 1.7 0.00 0.00 0.00 59 1013.5
20260906150626 93 23 0.0 0.9 0.00 0.00 0.00 60 1013.5
20260906150125 92 359 0.0 2.6 0.00 0.00 0.00 61 1013.5
20260906145624 92 0 0.0 2.6 0.00 0.00 0.00 61 1013.5
20260906145125 91 28 0.0 0.9 0.00 0.00 0.00 63 1013.4
20260906144624 91 44 0.0 0.9 0.00 0.00 0.00 62 1013.4
20260906144122 91 91 0.0 0.9 0.00 0.00 0.00 64 1013.4
20260906143626 90 39 0.0 1.7 0.00 0.00 0.00 65 1013.5
20260906143622 90 38 0.0 1.7 0.00 0.00 0.00 63 1013.4
20260906142622 90 328 0.0 1.7 0.00 0.00 0.00 64 1013.4
20260906142124 90 233 0.0 1.7 0.00 0.00 0.00 64 1013.6
20260906141622 90 233 0.0 1.7 0.00 0.00 0.00 63 1013.5
20260906141123 90 217 0.0 0.9 0.00 0.00 0.00 65 1013.5
20260906140622 89 217 0.0 0.9 0.00 0.00 0.00 66 1013.4
20260906140122 88 229 0.0 0.9 0.00 0.00 0.00 67 1013.4
20260906135627 87 229 0.0 0.0 0.00 0.00 0.00 70 1013.5
20260906135623 88 229 0.0 0.0 0.00 0.00 0.00 69 1013.4
20260906134628 0 0.0 0.0 0.00 0.00 0.00 1013.4
20260906134622 86 229 0.0 0.0 0.00 0.00 0.00 72 1013.4
20260906133621 0 0.0 0.0 0.00 0.00 0.00 1013.4
20260906133030 0 0.0 0.0 0.00 0.00 0.00 1013.3
20260906132526 0 0.0 0.0 0.00 0.00 0.00 1013.4
20260906132029 0 0.0 0.0 0.00 0.00 0.00 1013.4
20260906132025 0 0.0 0.0 0.00 0.00 0.00 1013.4
20260906130927 0 0.0 0.0 0.00 0.00 0.00 1013.4
20260906130427 0 0.0 0.0 0.00 0.00 0.00 1013.5
20260906125929 0 0.0 0.0 0.00 0.00 0.00 1013.4
20260906125427 0 0.0 0.0 0.00 0.00 0.00 1013.3
20260906124928 0 0.0 0.0 0.00 0.00 0.00 1013.2
20260906124427 0 0.0 0.0 0.00 0.00 0.00 1013.3
20260906123926 0 0.0 0.0 0.00 0.00 0.00 1013.2
20260906123431 0 0.0 0.0 0.00 0.00 0.00 1013.2
20260906123425 0 0.0 0.0 0.00 0.00 0.00 1013.1
20260906122420 0 0.0 0.0 0.00 0.00 0.00 1013.1
20260906121915 0 0.0 0.0 0.00 0.00 0.00 1013.0
20260906121334 0 0.0 0.0 0.00 0.00 0.00 1013.0
20260906121328 0 0.0 0.0 0.00 0.00 0.00 1012.9
20260906120328 0 0.0 0.0 0.00 0.00 0.00 1012.9
20260906115829 0 0.0 0.0 0.00 0.00 0.00 1012.8
20260906115329 0 0.0 0.0 0.00 0.00 0.00 1012.7
20260906114824 0 225 0.0 0.0 0.00 0.00 0.00 1012.7
20260906114230 78 225 0.0 0.0 0.00 0.00 0.00 82 1012.6
20260906113729 78 225 0.0 0.0 0.00 0.00 0.00 82 1012.6
20260906113232 77 229 0.0 0.0 0.00 0.00 0.00 82 1012.6
20260906113228 77 229 0.0 0.0 0.00 0.00 0.00 82 1012.6
20260906112232 77 229 0.0 0.0 0.00 0.00 0.00 82 1012.5
20260906112227 77 229 0.0 0.0 0.00 0.00 0.00 83 1012.5
20260906111225 77 229 0.0 0.0 0.00 0.00 0.00 82 1012.4
20260906110726 77 229 0.0 0.0 0.00 0.00 0.00 82 1012.4
20260906110226 77 229 0.0 0.0 0.00 0.00 0.00 82 1012.4
20260906105728 77 229 0.0 0.0 0.00 0.00 0.00 82 1012.3
20260906105724 77 229 0.0 0.0 0.00 0.00 0.00 82 1012.3
20260906104727 77 229 0.0 0.0 0.00 0.00 0.00 83 1012.4
20260906104723 77 229 0.0 0.0 0.00 0.00 0.00 83 1012.4
20260906103724 78 229 0.0 0.0 0.00 0.00 0.00 83 1012.4
20260906103229 78 229 0.0 0.0 0.00 0.00 0.00 83 1012.3
20260906103223 78 229 0.0 0.0 0.00 0.00 0.00 83 1012.4
20260906102224 78 229 0.0 0.0 0.00 0.00 0.00 82 1012.2
20260906101723 78 229 0.0 0.0 0.00 0.00 0.00 82 1012.1
20260906101223 78 229 0.0 0.0 0.00 0.00 0.00 82 1012.1
20260906100724 79 229 0.0 0.0 0.00 0.00 0.00 81 1012.1
20260906100223 79 229 0.0 0.0 0.00 0.00 0.00 81 1012.0
20260906095724 79 229 0.0 0.0 0.00 0.00 0.00 80 1012.0
20260906095223 79 229 0.0 0.0 0.00 0.00 0.00 80 1011.9
20260906094723 80 229 0.0 0.0 0.00 0.00 0.00 79 1011.8
20260906094228 80 229 0.0 0.0 0.00 0.00 0.00 78 1011.8
20260906094224 80 229 0.0 0.0 0.00 0.00 0.00 79 1011.8
20260906093838 80 229 0.0 0.0 0.00 0.00 0.00 78 1011.7
20260906092729 81 229 0.0 0.0 0.00 0.00 0.00 78 1011.6
20260906092723 80 229 0.0 0.0 0.00 0.00 0.00 78 1011.6
20260906091729 81 229 0.0 0.0 0.00 0.00 0.00 77 1011.6
20260906091724 81 229 0.0 0.0 0.00 0.00 0.00 78 1011.6
20260906090724 81 229 0.0 0.0 0.00 0.00 0.00 77 1011.6
20260906090224 81 229 0.0 0.0 0.00 0.00 0.00 77 1011.5
20260906085723 81 229 0.0 0.0 0.00 0.00 0.00 76 1011.5
20260906085225 81 229 0.0 0.0 0.00 0.00 0.00 76 1011.5
20260906084723 82 265 0.0 0.9 0.00 0.00 0.00 76 1011.6
20260906084223 82 265 0.0 0.9 0.00 0.00 0.00 76 1011.6
20260906083723 82 217 0.0 2.6 0.00 0.00 0.00 75 1011.6
20260906083224 82 217 0.0 2.6 0.00 0.00 0.00 75 1011.5
20260906082723 82 235 0.0 0.9 0.00 0.00 0.00 75 1011.6
20260906082221 82 248 0.0 2.6 0.00 0.00 0.00 75 1011.7
20260906081727 82 220 0.0 1.7 0.00 0.00 0.00 75 1011.6
20260906081722 82 209 0.0 2.6 0.00 0.00 0.00 75 1011.6
20260906081335 82 226 0.0 2.6 0.00 0.00 0.00 75 1011.6
20260906080218 82 210 0.0 2.6 0.00 0.00 0.00 75 1011.6
20260906075717 82 208 0.0 1.7 0.00 0.00 0.00 75 1011.6
20260906075219 83 225 0.0 0.0 0.00 0.00 0.00 75 1011.6
20260906074715 83 225 0.0 0.0 0.00 0.00 0.00 75 1011.7
20260906074214 83 225 0.0 0.0 0.00 0.00 0.00 75 1011.8
20260906073711 83 225 0.0 1.7 0.00 0.00 0.00 74 1011.9
20260906073214 83 243 0.0 0.9 0.00 0.00 0.00 74 1012.0
20260906073209 83 225 0.0 1.7 0.00 0.00 0.00 74 1011.9
20260906072209 83 243 0.0 0.9 0.00 0.00 0.00 73 1011.9
20260906071707 83 243 0.0 0.0 0.00 0.00 0.00 74 1011.9
20260906071209 83 243 0.0 0.0 0.00 0.00 0.00 73 1011.8
20260906070708 83 243 0.0 0.0 0.00 0.00 0.00 73 1011.9
20260906070208 84 243 0.0 0.0 0.00 0.00 0.00 73 1011.9
20260906065707 84 243 0.0 0.0 0.00 0.00 0.00 73 1011.8
20260906065207 84 243 0.0 0.9 0.00 0.00 0.00 73 1011.9
20260906064705 84 243 0.0 0.9 0.00 0.00 0.00 72 1012.0
20260906064205 84 243 0.0 0.0 0.00 0.00 0.00 72 1012.0
20260906063705 84 243 0.0 3.5 0.00 0.00 0.00 71 1011.9
20260906063205 84 243 0.0 3.5 0.00 0.00 0.00 71 1011.9
20260906062703 84 249 0.0 2.6 0.00 0.00 0.00 71 1011.9
20260906062209 84 226 0.0 3.5 0.00 0.00 0.00 71 1011.9
20260906062203 84 226 0.0 3.5 0.00 0.00 0.00 71 1012.0
20260906061817 85 224 0.0 0.9 0.00 0.00 0.00 71 1012.0
20260906060702 85 221 0.0 0.9 0.00 0.00 0.00 71 1012.1
20260906060201 85 222 0.0 0.9 0.00 0.00 0.00 71 1012.2
20260906055659 85 236 0.0 0.0 0.00 0.00 0.00 70 1012.2
20260906055159 85 248 0.0 0.0 0.00 0.00 0.00 70 1012.1
20260906054700 85 248 0.0 0.9 0.00 0.00 0.00 70 1012.0
20260906054201 85 248 0.0 0.9 0.00 0.00 0.00 70 1012.0
20260906053704 85 214 0.0 1.7 0.00 0.00 0.00 69 1012.0
20260906053700 85 248 0.0 1.7 0.00 0.00 0.00 69 1011.9
20260906053316 85 220 0.0 1.7 0.00 0.00 0.00 68 1012.0
20260906052159 86 223 0.0 4.3 0.00 0.00 0.00 68 1012.0
20260906051700 86 231 0.0 4.3 0.00 0.00 0.00 68 1012.1
20260906051202 86 243 0.0 0.9 0.00 0.00 0.00 67 1012.2
20260906051157 86 222 0.0 1.7 0.00 0.00 0.00 68 1012.2
20260906050157 86 243 0.0 1.7 0.00 0.00 0.00 67 1012.1
20260906045657 86 224 0.0 1.7 0.00 0.00 0.00 67 1012.1
20260906045201 86 266 0.0 3.5 0.00 0.00 0.00 67 1012.1
20260906045157 86 244 0.0 3.5 0.00 0.00 0.00 67 1012.1
20260906044313 87 209 0.0 1.7 0.00 0.00 0.00 65 1011.9
20260906044157 86 224 0.0 0.9 0.00 0.00 0.00 66 1012.1
20260906043701 86 209 0.0 0.0 0.00 0.00 0.00 66 1012.0
20260906043657 86 273 0.0 0.9 0.00 0.00 0.00 66 1012.0
20260906042200 87 238 0.0 0.9 0.00 0.00 0.00 64 1011.8
20260906042155 87 210 0.0 1.7 0.00 0.00 0.00 65 1011.8
20260906041155 87 221 0.0 0.0 0.00 0.00 0.00 64 1011.9
20260906040656 87 221 0.0 1.7 0.00 0.00 0.00 64 1011.8
20260906040156 87 286 0.0 1.7 0.00 0.00 0.00 64 1011.8
20260906035655 87 150 0.0 2.6 0.00 0.00 0.00 63 1011.9
20260906035200 88 229 0.0 3.5 0.00 0.00 0.00 62 1011.9
20260906035156 87 188 0.0 3.5 0.00 0.00 0.00 63 1011.9
20260906034201 88 233 0.0 1.7 0.00 0.00 0.00 62 1011.9
20260906034156 88 236 0.0 0.9 0.00 0.00 0.00 62 1011.9
20260906033156 88 216 0.0 1.7 0.00 0.00 0.00 61 1011.9
20260906032653 88 199 0.0 2.6 0.00 0.00 0.00 61 1012.0
20260906032151 88 46 0.0 2.6 0.00 0.00 0.00 61 1012.0
20260906031651 88 234 0.0 2.6 0.00 0.00 0.00 61 1011.9
20260906031151 88 224 0.0 2.6 0.00 0.00 0.00 60 1011.9
20260906030651 88 145 0.0 2.6 0.00 0.00 0.00 60 1012.0
20260906030155 89 251 0.0 1.7 0.00 0.00 0.00 59 1011.9
20260906030151 89 224 0.0 1.7 0.00 0.00 0.00 60 1012.0
20260906025804 89 226 0.0 2.6 0.00 0.00 0.00 59 1011.9
20260906024650 89 132 0.0 3.5 0.00 0.00 0.00 58 1011.8
20260906024149 89 37 0.0 3.5 0.00 0.00 0.00 59 1011.7
20260906023649 89 141 0.0 2.6 0.00 0.00 0.00 58 1011.7
20260906023149 89 169 0.0 2.6 0.00 0.00 0.00 58 1011.6
20260906022649 89 46 0.0 2.6 0.00 0.00 0.00 57 1011.6
20260906022148 90 207 0.0 1.7 0.00 0.00 0.00 57 1011.5
20260906021650 90 297 0.0 2.6 0.00 0.00 0.00 56 1011.4
20260906021149 90 292 0.0 2.6 0.00 0.00 0.00 56 1011.3
20260906020649 90 248 0.0 3.5 0.00 0.00 0.00 55 1011.3
20260906020149 91 144 0.0 3.5 0.00 0.00 0.00 55 1011.1
20260906015648 91 11 0.0 2.6 0.00 0.00 0.00 55 1011.2
20260906015148 91 37 0.9 4.3 0.00 0.00 0.00 54 1011.0
20260906014647 91 321 0.9 4.3 0.00 0.00 0.00 54 1010.8
20260906014147 92 346 0.9 5.2 0.00 0.00 0.00 53 1010.7
20260906013648 92 20 0.9 6.1 0.00 0.00 0.00 52 1010.6
20260906013147 92 342 0.9 6.1 0.00 0.00 0.00 52 1010.5
20260906012646 93 352 0.9 5.2 0.00 0.00 0.00 51 1010.4
20260906012147 93 146 0.9 3.5 0.00 0.00 0.00 50 1010.3
20260906011647 93 167 0.0 3.5 0.00 0.00 0.00 49 1010.1
20260906011152 94 292 0.0 0.0 0.00 0.00 0.00 45 1009.9
20260906011148 93 339 0.0 2.6 0.00 0.00 0.00 46 1010.1
20260906010150 94 292 0.0 0.0 0.00 0.00 0.00 44 1009.9
20260906010145 94 292 0.0 0.0 0.00 0.00 0.00 45 1009.9
20260906005145 95 292 0.0 0.0 0.00 0.00 0.00 43 1010.0
20260906004646 95 18 0.0 0.0 0.00 0.00 0.00 42 1009.9
20260906004145 96 18 0.0 0.0 0.00 0.00 0.00 42 1009.9
20260906003644 96 18 0.0 0.0 0.00 0.00 0.00 42 1009.9
20260906003145 97 21 0.0 0.9 0.00 0.00 0.00 41 1009.9
20260906002645 97 21 0.0 0.9 0.00 0.00 0.00 40 1009.8
20260906002149 98 15 0.0 0.9 0.00 0.00 0.00 39 1009.9
20260906002145 98 16 0.0 0.9 0.00 0.00 0.00 39 1009.9
20260906001143 99 320 0.0 0.9 0.00 0.00 0.00 37 1009.9
20260906000648 101 2 0.0 0.9 0.00 0.00 0.00 35 1009.7
20260906000643 100 2 0.0 0.9 0.00 0.00 0.00 36 1009.8
20260905235644 101 2 0.0 0.9 0.00 0.00 0.00 35 1009.8
20260905235144 101 359 0.0 0.9 0.00 0.00 0.00 35 1009.7
20260905234643 101 295 0.0 1.7 0.00 0.00 0.00 36 1009.7
20260905234148 101 25 0.0 1.7 0.00 0.00 0.00 36 1009.7
20260905234143 100 353 0.0 1.7 0.00 0.00 0.00 37 1009.6
20260905233141 101 68 0.0 1.7 0.00 0.00 0.00 35 1009.6
20260905232642 102 298 0.0 0.9 0.00 0.00 0.00 36 1009.7
20260905232142 102 248 0.0 0.9 0.00 0.00 0.00 35 1009.7
20260905231638 102 18 0.0 0.0 0.00 0.00 0.00 36 1009.7
20260905231140 102 18 0.0 0.0 0.00 0.00 0.00 36 1009.7